NW Arkansas Airport, AR

6:41 PM CST on November 19, 2017 (GMT -0600)
Northwest Arkansas Regional

Weather History for KXNA - January, 2014

Change the Weather History Date:

Monday, January 27, 2014

  Actual Average (KVBT) Record (KVBT)
Temperature  
Mean Temperature 25 °F -  
Max Temperature 35 °F 45 °F 66 °F (1970)
Min Temperature 15 °F 22 °F -2 °F (1963)
Degree Days  
Heating Degree Days 40    
Moisture  
Dew Point -3 °F    
Average Humidity 37    
Maximum Humidity 47    
Minimum Humidity 30    
Precipitation  
Precipitation 0.00 in - - ()
Sea Level Pressure  
Sea Level Pressure 30.32 in    
Wind  
Wind Speed 19 mph (NNE)    
Max Wind Speed 28 mph    
Max Gust Speed 38 mph    
Visibility 10 miles    
Events      
Averages and records for this station are not official NWS values.
T = Trace of Precipitation, MM = Missing Value Source: NWS Daily Summary

Daily Weather History Graph

Daily Weather History Graph

Search for Another Location

Airport or City:

Trip Planner

Search our weather history database for the weather conditions in past years. The results will help you decide how hot, cold, wet, or windy it might be!

Date:

Astronomy

Jan. 27, 2014 Rise Set
Actual Time 7:22 AM CST 5:38 PM CST
Civil Twilight 6:54 AM CST 6:05 PM CST
Nautical Twilight 6:23 AM CST 6:36 PM CST
Astronomical Twilight 5:53 AM CST 7:07 PM CST
Moon 4:02 AM CST (1/27) 2:26 PM CST (1/27)
Length of Visible Light 11h 11m
Length of Day
10h 16m
Waning Crescent, 14% of the Moon is Illuminated
Jan 27
Waning Crescent
Jan 30
New
Feb 6
First Quarter
Feb 14
Full
Feb 22
Last Quarter

Hourly Weather History & Observations

Time (CST) Temp. Windchill Dew Point Humidity Pressure Visibility Wind Dir Wind Speed Gust Speed Precip Events Conditions
12:06 AM 35.6 °F 23.2 °F 15.8 °F 44% 30.01 in 10.0 mi North 26.5 mph 38.0 mph N/A   Scattered Clouds
12:53 AM 32.0 °F 20.1 °F 12.0 °F 44% 30.04 in 10.0 mi North 19.6 mph - N/A   Clear
1:53 AM 30.0 °F 15.4 °F 5.0 °F 35% 30.08 in 10.0 mi North 27.6 mph 38.0 mph N/A   Clear
2:53 AM 28.0 °F 14.9 °F 10.0 °F 47% 30.12 in 10.0 mi North 19.6 mph 28.8 mph N/A   Clear
3:53 AM 24.1 °F 8.7 °F 3.0 °F 40% 30.16 in 10.0 mi North 23.0 mph 34.5 mph N/A   Clear
4:53 AM 21.9 °F 7.8 °F -2.0 °F 35% 30.21 in 10.0 mi North 17.3 mph 25.3 mph N/A   Overcast
5:53 AM 21.0 °F 5.7 °F 1.9 °F 44% 30.24 in 10.0 mi North 19.6 mph 25.3 mph N/A   Overcast
6:53 AM 19.9 °F 5.2 °F -2.9 °F 37% 30.27 in 10.0 mi North 17.3 mph 29.9 mph N/A   Mostly Cloudy
7:53 AM 19.0 °F 2.4 °F -0.0 °F 43% 30.30 in 10.0 mi North 21.9 mph - N/A   Overcast
8:53 AM 18.0 °F 2.6 °F -2.0 °F 41% 30.35 in 10.0 mi NNE 17.3 mph - N/A   Overcast
9:53 AM 18.0 °F 3.1 °F -0.0 °F 45% 30.39 in 10.0 mi NNE 16.1 mph - N/A   Overcast
10:53 AM 17.1 °F 1.5 °F -9.0 °F 31% 30.42 in 10.0 mi NNE 17.3 mph - N/A   Overcast
11:53 AM 17.1 °F 3.0 °F -8.0 °F 33% 30.42 in 10.0 mi North 13.8 mph - N/A   Overcast
12:53 PM 19.0 °F 4.5 °F -8.0 °F 30% 30.40 in 10.0 mi North 16.1 mph - N/A   Overcast
1:53 PM 18.0 °F 2.6 °F -6.0 °F 35% 30.38 in 10.0 mi NNE 17.3 mph - N/A   Overcast
2:53 PM 17.1 °F 3.0 °F -9.0 °F 31% 30.37 in 10.0 mi North 13.8 mph - N/A   Overcast
3:53 PM 18.0 °F 3.6 °F -8.0 °F 31% 30.38 in 10.0 mi NNE 15.0 mph - N/A   Overcast
4:53 PM 17.1 °F 2.5 °F -9.0 °F 31% 30.41 in 10.0 mi NNE 15.0 mph - N/A   Overcast
5:53 PM 16.0 °F 0.1 °F -8.0 °F 34% 30.40 in 10.0 mi NNE 17.3 mph - N/A   Overcast
6:53 PM 16.0 °F 2.9 °F -6.0 °F 38% 30.41 in 10.0 mi NNE 11.5 mph - N/A   Overcast
7:53 PM 16.0 °F 2.3 °F -7.1 °F 36% 30.41 in 10.0 mi NNE 12.7 mph - N/A   Overcast
8:53 PM 16.0 °F 3.6 °F -7.1 °F 36% 30.43 in 10.0 mi NNE 10.4 mph - N/A   Overcast
9:53 PM 16.0 °F 2.3 °F -7.1 °F 36% 30.45 in 10.0 mi NNE 12.7 mph - N/A   Overcast
10:53 PM 15.1 °F 1.8 °F -6.0 °F 39% 30.45 in 10.0 mi NNE 11.5 mph - N/A   Overcast
11:53 PM 15.1 °F 3.3 °F -5.1 °F 41% 30.46 in 10.0 mi NNE 9.2 mph - N/A   Overcast